TimeEST,TemperatureF,Dew PointF,Humidity,Sea Level PressureIn,VisibilityMPH,Wind Direction,Wind SpeedMPH,Gust SpeedMPH,PrecipitationIn,Events,Conditions,WindDirDegrees,DateUTC
12:15 AM,37.4,33.8,87,30.00,10.0,ESE,3.5,-,0.00,,Overcast,110,2012-12-25 05:15:00
12:53 AM,37.9,35.1,89,30.00,10.0,East,3.5,-,0.00,,Overcast,90,2012-12-25 05:53:00
1:06 AM,37.4,35.6,93,30.00,10.0,East,4.6,-,0.00,Rain,Light Rain,100,2012-12-25 06:06:00
1:53 AM,37.9,36.0,93,29.99,10.0,ENE,3.5,-,0.00,,Overcast,60,2012-12-25 06:53:00
2:42 AM,39.2,37.4,93,29.98,10.0,East,5.8,-,0.01,Rain,Light Rain,90,2012-12-25 07:42:00
2:53 AM,39.9,37.9,93,29.97,10.0,East,6.9,-,0.01,Rain,Light Rain,80,2012-12-25 07:53:00
3:21 AM,39.2,37.4,93,29.97,10.0,East,6.9,-,0.00,,Overcast,90,2012-12-25 08:21:00
3:53 AM,41.0,39.0,93,29.96,8.0,East,6.9,-,0.00,Rain,Light Rain,80,2012-12-25 08:53:00
4:08 AM,41.0,39.2,93,29.96,5.0,ENE,6.9,-,0.00,Rain,Light Rain,70,2012-12-25 09:08:00
4:53 AM,42.1,39.9,92,29.95,8.0,ENE,5.8,-,0.00,,Overcast,70,2012-12-25 09:53:00
5:53 AM,43.0,42.1,97,29.95,10.0,ENE,5.8,-,N/A,,Overcast,70,2012-12-25 10:53:00
6:15 AM,42.8,42.8,100,29.95,10.0,East,5.8,-,N/A,,Overcast,100,2012-12-25 11:15:00
6:53 AM,44.1,42.1,93,29.94,10.0,East,9.2,-,N/A,,Overcast,90,2012-12-25 11:53:00
7:53 AM,45.0,43.0,93,29.93,10.0,East,6.9,-,N/A,,Overcast,80,2012-12-25 12:53:00
8:53 AM,46.0,44.1,93,29.94,10.0,East,6.9,-,N/A,,Overcast,80,2012-12-25 13:53:00
9:37 AM,46.4,44.6,93,29.95,10.0,ENE,9.2,-,N/A,,Overcast,60,2012-12-25 14:37:00
9:48 AM,46.4,44.6,93,29.95,10.0,ENE,8.1,-,N/A,,Overcast,60,2012-12-25 14:48:00
9:53 AM,46.0,44.1,93,29.95,10.0,ENE,6.9,-,N/A,,Overcast,60,2012-12-25 14:53:00
10:29 AM,46.4,44.6,93,29.95,9.0,NE,8.1,-,0.00,Rain,Light Rain,40,2012-12-25 15:29:00
10:39 AM,46.4,44.6,93,29.94,10.0,NE,10.4,-,0.00,,Overcast,40,2012-12-25 15:39:00
10:53 AM,46.0,44.1,93,29.94,4.0,NE,9.2,-,0.01,Rain,Light Rain,40,2012-12-25 15:53:00
11:53 AM,45.0,44.1,97,29.94,3.0,North,9.2,-,0.07,Rain,Light Rain,360,2012-12-25 16:53:00
12:53 PM,42.1,41.0,96,29.94,5.0,North,16.1,-,0.03,Rain,Light Rain,350,2012-12-25 17:53:00
1:53 PM,42.1,39.9,92,29.94,8.0,North,17.3,-,0.01,Rain,Light Rain,350,2012-12-25 18:53:00
2:53 PM,42.1,39.9,92,29.98,10.0,NNW,15.0,-,0.01,,Overcast,340,2012-12-25 19:53:00
3:53 PM,41.0,39.0,93,30.00,8.0,NNW,17.3,27.6,N/A,,Overcast,340,2012-12-25 20:53:00
4:53 PM,39.9,37.9,93,30.02,10.0,North,17.3,28.8,N/A,,Overcast,350,2012-12-25 21:53:00
5:53 PM,39.9,37.9,93,30.05,10.0,North,15.0,23.0,N/A,,Overcast,350,2012-12-25 22:53:00
6:53 PM,39.0,37.0,93,30.09,10.0,North,17.3,-,N/A,,Overcast,350,2012-12-25 23:53:00
7:00 PM,39.2,35.6,87,30.09,10.0,NNW,17.3,24.2,N/A,,Overcast,340,2012-12-26 00:00:00
7:53 PM,37.9,35.1,89,30.11,10.0,NNW,15.0,26.5,N/A,,Overcast,340,2012-12-26 00:53:00
8:00 PM,37.4,35.6,93,30.11,10.0,North,19.6,25.3,N/A,,Overcast,350,2012-12-26 01:00:00
8:46 PM,37.4,33.8,87,30.12,10.0,North,15.0,-,N/A,,Overcast,350,2012-12-26 01:46:00
8:53 PM,37.9,34.0,86,30.12,10.0,NNW,15.0,-,N/A,,Overcast,340,2012-12-26 01:53:00
9:26 PM,37.4,33.8,87,30.13,10.0,NNW,11.5,-,N/A,,Overcast,330,2012-12-26 02:26:00
9:53 PM,37.0,33.1,86,30.14,10.0,NNW,12.7,-,N/A,,Overcast,330,2012-12-26 02:53:00
10:53 PM,37.0,33.1,86,30.17,10.0,NNW,9.2,-,N/A,,Overcast,330,2012-12-26 03:53:00
11:21 PM,35.6,33.8,93,30.17,10.0,NNW,12.7,-,N/A,,Overcast,330,2012-12-26 04:21:00
11:53 PM,36.0,32.0,86,30.17,10.0,NW,9.2,-,N/A,,Overcast,320,2012-12-26 04:53:00